EW9442 Weather Reports


time (UTC)temp
C
wind
direction
speed
KPH
gust
KPH
rain 1hr
cm
rain 24hr
cm
rain mn
cm
humidity
%
barometer
mb
20260502123050 11 199 0.0 0.0 0.00 0.36 0.00 88 1020.6
20260502121529 11 190 0.0 0.0 0.00 0.36 0.00 87 1020.3
20260502114524 12 190 0.0 0.0 0.00 0.36 0.00 87 1019.7
20260502113029 12 200 0.0 0.0 0.00 0.36 0.00 87 1019.5
20260502111522 12 200 0.0 0.0 0.00 0.36 0.00 87 1019.3
20260502110022 12 207 0.0 0.0 0.00 0.36 0.00 88 1019.3
20260502104520 12 194 0.0 1.6 0.00 0.36 0.00 88 1019.1
20260502103018 11 242 0.0 0.0 0.00 0.36 0.00 88 1019.1
20260502101517 11 210 0.0 0.0 0.00 0.36 0.00 88 1018.9
20260502091514 11 207 0.0 0.0 0.00 0.36 0.00 87 1018.8
20260502071503 12 206 0.0 0.0 0.00 0.36 0.00 86 1018.6
20260502070004 12 206 0.0 0.0 0.00 0.36 0.00 86 1018.8
20260502064502 12 207 0.0 0.0 0.00 0.36 0.00 86 1018.9
20260502063001 12 206 0.0 0.0 0.00 0.36 0.00 86 1019.1
20260502061601 12 205 0.0 0.0 0.00 0.36 0.00 86 1019.1
20260502060059 12 205 0.0 0.0 0.00 0.36 0.00 86 1018.8
20260502054558 12 205 0.0 0.0 0.00 0.36 0.00 86 1018.9
20260502053100 12 205 0.0 0.0 0.00 0.36 0.00 85 1018.8
20260502051603 12 282 0.0 0.0 0.00 0.36 0.00 85 1018.8
20260502050055 12 282 0.0 0.0 0.00 0.36 0.00 85 1018.7
20260502044604 12 282 0.0 0.0 0.00 0.36 0.36 85 1018.7
20260502043057 12 32 0.0 0.0 0.00 0.36 0.36 84 1018.5
20260502041552 12 32 0.0 0.0 0.00 0.36 0.36 84 1018.3
20260502040055 12 32 0.0 0.0 0.00 0.36 0.36 84 1018.4
20260502034550 13 32 0.0 0.0 0.00 0.36 0.36 84 1018.4
20260502033021 13 32 0.0 0.0 0.00 0.36 0.36 84 1018.3
20260502031548 13 32 0.0 0.0 0.00 0.36 0.36 83 1017.9
20260502030049 13 32 0.0 0.0 0.00 0.36 0.36 83 1018.0
20260502024546 13 32 0.0 0.0 0.00 0.36 0.36 83 1017.8
20260502023046 13 32 0.0 0.0 0.00 0.36 0.36 82 1017.7
20260502021543 13 32 0.0 0.0 0.00 0.36 0.36 82 1017.4
20260502020042 13 32 0.0 0.0 0.00 0.36 0.36 82 1017.3
20260502014541 14 32 0.0 0.0 0.00 0.36 0.36 81 1017.0
20260502013043 14 32 0.0 0.0 0.00 0.36 0.36 81 1016.8
20260502011541 14 32 0.0 0.0 0.00 0.36 0.36 80 1016.6
20260502010039 15 32 0.0 0.0 0.00 0.36 0.36 79 1016.6
20260502004539 15 32 0.0 0.0 0.00 0.36 0.36 78 1016.4
20260502003038 15 32 0.0 0.0 0.00 0.36 0.36 78 1016.4
20260502001546 15 32 0.0 0.0 0.00 0.36 0.36 78 1016.2
20260502000036 15 32 0.0 0.0 0.00 0.36 0.36 77 1016.0
20260501234539 15 32 0.0 0.0 0.00 0.36 0.36 76 1016.0
20260501233036 16 286 0.0 0.0 0.00 0.36 0.36 75 1015.8
20260501231536 16 228 0.0 0.0 0.00 0.36 0.36 76 1015.6
20260501230034 16 56 0.0 0.0 0.00 0.36 0.36 76 1015.3
20260501224536 15 56 0.0 0.0 0.00 0.36 0.36 76 1015.1
20260501223032 15 70 0.0 0.0 0.00 0.36 0.36 76 1014.9
20260501221532 15 360 0.0 0.0 0.00 0.36 0.36 75 1015.2
20260501220039 15 260 0.0 0.0 0.03 0.36 0.36 75 1014.7
20260501214540 15 74 0.0 0.0 0.03 0.36 0.36 75 1014.2
20260501213029 15 75 0.0 0.0 0.03 0.36 0.36 75 1015.3
20260501211530 15 270 0.0 0.0 0.03 0.36 0.36 75 1014.4
20260501210028 15 275 0.0 0.0 0.00 0.33 0.33 78 1014.1
20260501204528 15 61 0.0 0.0 0.00 0.33 0.33 77 1014.1
20260501203027 15 50 0.0 0.0 0.00 0.33 0.33 71 1015.1
20260501201527 15 53 0.0 0.0 0.00 0.33 0.33 70 1015.5
20260501200034 15 20 0.0 0.0 0.00 0.33 0.33 71 1015.3
20260501194534 15 330 0.0 0.0 0.00 0.43 0.33 70 1015.4
20260501193025 15 33 0.0 0.0 0.00 0.43 0.33 70 1015.2
20260501191524 15 69 0.0 0.0 0.00 0.43 0.33 73 1014.4
20260501190037 15 59 0.0 0.0 0.00 0.43 0.33 74 1014.4
20260501184518 15 201 0.0 12.9 0.00 0.58 0.33 77 1014.3
20260501183017 14 55 1.6 14.5 0.00 0.58 0.33 81 1014.7
20260501181521 13 33 0.0 0.0 0.00 0.58 0.33 84 1015.0
20260501180026 14 34 0.0 6.4 0.03 0.58 0.33 86 1015.2
20260501174513 13 295 0.0 0.0 0.05 0.76 0.33 88 1015.6
20260501173013 12 341 0.0 0.0 0.05 0.76 0.33 90 1015.6
20260501171510 12 66 0.0 1.6 0.08 0.76 0.33 90 1016.3
20260501170010 12 57 0.0 6.4 0.08 0.71 0.30 91 1016.2
20260501164509 12 51 0.0 6.4 0.10 0.76 0.28 91 1016.4
20260501163009 12 78 0.0 3.2 0.10 0.71 0.25 91 1016.8
20260501161509 13 65 0.0 0.0 0.10 0.71 0.23 91 1016.6
20260501160010 12 109 0.0 0.0 0.10 0.69 0.20 90 1016.6
20260501154506 12 53 0.0 0.0 0.10 0.66 0.18 88 1016.8
20260501153004 12 78 0.0 1.6 0.10 0.64 0.15 88 1017.1
20260501151502 12 83 0.0 1.6 0.08 0.61 0.13 87 1017.2
20260501150114 12 103 0.0 0.0 0.08 0.58 0.10 87 1016.7
20260501144602 13 103 0.0 0.0 0.05 0.56 0.08 87 1016.8
20260501143055 13 119 0.0 0.0 0.03 0.53 0.05 86 1017.1
20260501141608 13 119 0.0 0.0 0.05 0.53 0.05 86 1017.0
20260501140055 13 107 0.0 0.0 0.03 0.51 0.03 86 1016.2
20260501134548 13 78 0.0 0.0 0.03 0.51 0.03 86 1016.1